Weather History for Westerly, RI

Change the Weather History Date:

Wednesday, February 6, 2013

  Actual Average (KGON) Record (KGON)
Temperature  
Mean Temperature 32 °F -  
Max Temperature 37 °F 36 °F 55 °F (2008)
Min Temperature 26 °F 17 °F 0 °F (1978)
Degree Days  
Heating Degree Days 34    
Moisture  
Dew Point 20 °F    
Average Humidity 69    
Maximum Humidity 93    
Minimum Humidity 29    
Precipitation  
Precipitation 0.00 in - - ()
Sea Level Pressure  
Sea Level Pressure 30.04 in    
Wind  
Wind Speed 4 mph (NNW)    
Max Wind Speed 12 mph    
Max Gust Speed 21 mph    
Visibility 8 miles    
Events Snow    
Averages and records for this station are not official NWS values.
T = Trace of Precipitation, MM = Missing Value Source: NWS Daily Summary

Daily Weather History Graph

Daily Weather History Graph

Search for Another Location

Airport:

Trip Planner

Search our weather history database for the weather conditions in past years. The results will help you decide how hot, cold, wet, or windy it might be!

Date:

Astronomy

Feb. 06, 2013 Rise Set
Actual Time 6:53 AM EST 5:10 PM EST
Civil Twilight 6:24 AM EST 5:39 PM EST
Nautical Twilight 5:51 AM EST 6:11 PM EST
Astronomical Twilight 5:19 AM EST 6:44 PM EST
Moon 3:35 AM EST (2/6) 1:24 PM EST (2/6)
Length of Visible Light 11h 14m
Length of Day
10h 17m
Waning Crescent, 17% of the Moon is Illuminated
Feb 6
Waning Crescent
Feb 10
New
Feb 17
First Quarter
Feb 25
Full
Mar 4
Last Quarter

Hourly Weather History & Observations

Time (EST) Temp. Windchill Dew Point Humidity Pressure Visibility Wind Dir Wind Speed Gust Speed Precip Events Conditions
12:15 AM 26.6 °F 20.0 °F 21.2 °F 80% 29.93 in 10.0 mi North 5.8 mph - N/A   Overcast
12:53 AM 27.0 °F 23.0 °F 23.0 °F 85% 29.93 in 6.0 mi North 3.5 mph - 0.00 in Snow Light Snow
1:12 AM 26.6 °F 22.6 °F 24.8 °F 93% 29.93 in 2.5 mi North 3.5 mph - 0.00 in Snow Light Snow
1:26 AM 26.6 °F 22.6 °F 24.8 °F 93% 29.93 in 4.0 mi NNW 3.5 mph - 0.00 in Snow Light Snow
1:49 AM 26.6 °F 22.6 °F 24.8 °F 93% 29.93 in 5.0 mi North 3.5 mph - 0.00 in Snow Light Snow
1:53 AM 27.0 °F 21.6 °F 24.1 °F 89% 29.93 in 5.0 mi North 4.6 mph - 0.00 in Snow Light Snow
2:11 AM 26.6 °F 22.6 °F 24.8 °F 93% 29.93 in 6.0 mi North 3.5 mph - 0.00 in   Overcast
2:53 AM 27.0 °F 23.0 °F 24.1 °F 89% 29.92 in 8.0 mi North 3.5 mph - 0.00 in   Overcast
3:53 AM 27.0 °F 23.0 °F 24.1 °F 89% 29.92 in 9.0 mi NNE 3.5 mph - N/A   Overcast
4:53 AM 27.0 °F - 25.0 °F 92% 29.94 in 8.0 mi Calm Calm - N/A   Overcast
5:38 AM 28.4 °F - 24.8 °F 86% 29.95 in 8.0 mi Calm Calm - N/A   Overcast
5:53 AM 28.0 °F - 25.0 °F 88% 29.96 in 9.0 mi Calm Calm - N/A   Overcast
6:53 AM 28.0 °F - 25.0 °F 88% 29.99 in 9.0 mi Calm Calm - N/A   Overcast
7:53 AM 28.0 °F - 25.0 °F 88% 30.01 in 7.0 mi Calm Calm - N/A   Overcast
8:53 AM 30.0 °F 26.5 °F 26.1 °F 85% 30.03 in 7.0 mi West 3.5 mph - N/A   Overcast
9:53 AM 30.9 °F - 25.0 °F 79% 30.04 in 6.0 mi Calm Calm - N/A   Haze
10:04 AM 32.0 °F 27.5 °F 24.8 °F 75% 30.04 in 7.0 mi Variable 4.6 mph - N/A   Partly Cloudy
10:53 AM 35.1 °F 29.3 °F 26.1 °F 70% 30.04 in 9.0 mi NNW 6.9 mph - N/A   Clear
11:53 AM 37.0 °F 34.5 °F 24.1 °F 59% 30.04 in 10.0 mi Variable 3.5 mph - N/A   Clear
12:53 PM 37.0 °F 31.0 °F 27.0 °F 67% 30.03 in 9.0 mi SW 8.1 mph - N/A   Mostly Cloudy
1:53 PM 37.0 °F 29.3 °F 27.0 °F 67% 30.04 in 8.0 mi WSW 11.5 mph 17.3 mph N/A   Overcast
2:53 PM 37.9 °F 31.5 °F 18.0 °F 45% 30.06 in 10.0 mi NW 9.2 mph - N/A   Overcast
3:53 PM 37.9 °F 30.9 °F 15.1 °F 39% 30.08 in 10.0 mi NW 10.4 mph 20.7 mph N/A   Partly Cloudy
4:53 PM 37.0 °F 33.3 °F 16.0 °F 42% 30.10 in 10.0 mi NW 4.6 mph - N/A   Clear
5:53 PM 34.0 °F 31.0 °F 17.1 °F 50% 30.14 in 10.0 mi West 3.5 mph - N/A   Clear
6:53 PM 33.1 °F 30.0 °F 16.0 °F 50% 30.18 in 10.0 mi NW 3.5 mph - N/A   Clear
7:53 PM 33.1 °F 28.7 °F 12.9 °F 43% 30.22 in 10.0 mi Variable 4.6 mph - N/A   Clear
8:53 PM 30.9 °F 25.2 °F 12.0 °F 46% 30.25 in 10.0 mi NNW 5.8 mph - N/A   Clear
9:53 PM 30.0 °F 23.2 °F 3.0 °F 32% 30.28 in 10.0 mi NNW 6.9 mph - N/A   Clear
10:53 PM 28.9 °F 19.2 °F -0.0 °F 29% 30.30 in 10.0 mi NNW 11.5 mph 17.3 mph N/A   Clear
11:53 PM 28.0 °F 18.1 °F -0.0 °F 30% 30.32 in 10.0 mi NNW 11.5 mph - N/A   Clear